Temp
18 18 18 18 18 18 19 20 19 19 18 18 18 19 19 19 19 19 19 19 19 19
18 18 19 19 19 19 19 18 19 18 18 18 18 18 19 19 19 19 19 19 19 18
19 18 18 19 18 19 19 19 19 18 18 18 18 18 18 19 20 19 19 19 19 19
19 19 18 19 18 19 18 19 18 18 18 18 18 18 18 18 19 19 19 19 19 18
20 19 19 19 19 19 19 19 18 18 18 18 18 18 18 18 19 19 18 18 19 19
20 20 20 19 19 18 18 19 18 18 18 18 18 18 18 18 18 18 19 19 19 19
21 20 20 20 19 19 19 18 18 18 18 18 18 18 18 18 18 18 19 19 19 20
20 20 20 20 19 19 18 18 19 18 18 18 18 18 18 18 19 18 19 19 19 19
20 20 20 19 19 19 18 18 18 18 18 18 18 19 19 19 19 19 19 19 19 19
20 19 19 19 19 19 19 18 18 18 18 18 18 18 19 19 19 19 19 19 19 19
20 19 19 19 19 19 19 19 19 18 19 19 18 18 19 19 19 19 19 19 19 18
19 19 19 19 19 19 19 19 19 18 18 18 20 20 20 20 19 18 18 19 19 18
19 19 19 19 19 19 19 19 19 19 19 18 18 19 20 20 18 18 18 18 18 18
19 19 19 19 19 19 19 19 19 19 19 19 19 18 18 20 20 19 19 19 19 17
Height
1539 1544 1546 1547 1550 1553 1556 1559 1560 1560 1566 1569 1572 1575 1577 1578 1579 1580 1580 1580 1580 1580
1535 1538 1543 1544 1546 1550 1552 1553 1556 1559 1562 1566 1569 1571 1574 1576 1576 1577 1578 1578 1578 1578
1531 1533 1538 1541 1541 1545 1549 1552 1554 1556 1559 1562 1565 1568 1570 1572 1573 1574 1575 1575 1575 1575
1527 1530 1533 1537 1537 1540 1545 1548 1550 1552 1556 1558 1561 1563 1565 1567 1568 1570 1570 1571 1571 1570
1523 1526 1529 1532 1535 1535 1538 1543 1546 1549 1552 1554 1557 1558 1560 1563 1565 1566 1567 1566 1568 1568
1519 1522 1525 1526 1529 1532 1533 1536 1540 1543 1547 1550 1552 1554 1557 1559 1561 1562 1563 1564 1564 1565
1513 1516 1520 1523 1524 1526 1528 1531 1534 1537 1540 1543 1546 1549 1552 1554 1556 1557 1559 1560 1560 1561
1509 1512 1515 1519 1520 1522 1525 1527 1529 1532 1535 1537 1541 1543 1545 1549 1551 1552 1554 1555 1556 1557
1503 1507 1510 1513 1516 1518 1520 1522 1524 1526 1528 1531 1534 1538 1540 1543 1545 1547 1548 1549 1551 1552
1499 1502 1505 1508 1511 1513 1515 1517 1518 1519 1521 1523 1525 1529 1533 1536 1538 1540 1542 1543 1545 1546
1494 1496 1499 1501 1503 1507 1511 1513 1514 1516 1516 1517 1519 1522 1525 1528 1530 1532 1533 1536 1538 1538
1490 1491 1494 1497 1500 1504 1507 1511 1514 1515 1515 1516 1516 1517 1519 1523 1525 1526 1527 1529 1530 1531
1486 1487 1489 1493 1497 1501 1502 1503 1506 1509 1513 1516 1516 1515 1514 1516 1518 1520 1522 1524 1526 1525
1482 1485 1489 1492 1496 1497 1499 1500 1502 1505 1508 1510 1511 1512 1511 1511 1512 1513 1515 1515 1516 1518
Wind_Speed
25 21 21 21 15 15 18 19 17 22 22 20 16 16 14 14 11 12 10 10 11 10
25 24 20 21 19 16 16 20 16 20 20 20 19 17 15 14 15 13 11 10 11 10
24 23 22 20 24 23 17 15 16 19 18 19 18 18 17 15 14 16 14 13 12 11
23 22 22 20 22 24 23 19 18 19 18 19 19 18 19 19 18 16 14 16 16 14
23 22 22 23 20 20 28 25 23 20 22 21 20 20 20 18 17 18 17 15 13 13
25 24 23 23 24 22 20 25 28 24 24 23 21 21 19 20 18 17 16 15 15 13
28 26 24 23 23 25 25 25 24 27 27 26 25 24 23 21 21 20 18 17 16 17
28 26 26 26 26 23 23 22 24 26 28 27 24 23 22 22 21 19 18 19 18 19
27 27 28 27 28 24 23 22 22 23 24 28 26 24 25 23 20 21 22 20 17 20
26 26 26 25 26 25 24 23 25 25 26 28 29 27 28 28 26 22 21 21 20 20
24 25 25 25 26 24 23 23 24 24 25 26 27 27 30 31 29 29 28 28 25 25
20 23 25 25 24 22 20 20 21 22 25 26 26 25 25 26 27 24 26 26 25 23
18 20 23 23 22 20 22 22 20 21 23 25 26 26 26 25 23 20 19 18 16 22
18 18 19 19 19 20 19 20 22 22 22 22 24 24 24 22 23 20 16 20 22 18
Wind_Direction
217 220 228 231 217 217 222 228 226 232 212 211 221 225 224 235 244 249 258 260 251 257
216 213 219 228 224 214 233 221 216 218 214 211 221 222 224 234 236 247 253 256 258 260
214 217 211 215 231 209 219 210 211 204 210 209 221 218 225 228 240 237 243 245 237 258
211 213 213 215 231 214 208 213 206 202 208 211 213 217 223 225 224 246 247 240 242 251
208 208 211 209 221 225 223 213 220 211 216 210 215 222 234 236 231 244 243 257 253 251
207 208 210 212 208 218 229 224 218 222 219 220 222 230 233 238 239 236 243 250 262 252
208 209 209 214 217 214 220 220 221 220 228 227 226 230 229 237 245 241 247 251 249 252
210 209 209 212 223 223 226 227 229 227 226 232 232 233 234 232 240 246 245 246 251 260
211 209 211 211 218 224 221 225 228 227 230 229 228 230 228 229 235 236 246 259 252 259
212 208 209 211 216 220 221 222 226 226 224 228 229 221 225 231 230 227 235 245 253 258
207 210 209 210 214 218 221 224 231 231 234 231 231 228 225 228 234 238 242 244 247 258
207 209 212 213 214 217 221 227 234 238 240 237 240 235 234 233 236 241 248 251 257 261
209 212 214 216 219 221 225 227 228 241 247 249 248 243 238 234 231 237 243 254 260 253
211 212 211 211 216 227 233 231 240 238 243 248 249 243 245 235 230 225 234 236 239 252